Location: Narrabri
(30.3170°S, 149.7830°E)
Time: 22:32:23
(UTC+11:00)

Vanguard 2 Rocket - All Passes

Search period start: 21 February 2018 00:00
Search period end: 03 March 2018 00:00
Orbit: 555 x 3327 km, 32.9° (Epoch: 20 February)

Date Brightness Start Highest point End Pass type
(mag) Time Alt. Az. Time Alt. Az. Time Alt. Az.
21 Feb - 07:29:15 10° N 07:37:09 16° NNE 07:43:23 10° ENE daylight
21 Feb - 09:41:23 10° NW 09:52:58 41° NNE 09:59:50 10° E daylight
21 Feb - 11:58:09 10° WNW 12:07:10 87° NNE 12:12:23 10° ESE daylight
21 Feb - 14:14:55 10° W 14:20:32 64° S 14:24:35 10° E daylight
21 Feb - 16:29:19 10° W 16:33:20 54° NNW 16:37:23 10° ENE daylight
21 Feb - 18:44:51 10° NW 18:46:05 11° NNW 18:47:23 10° N daylight
22 Feb - 06:32:20 10° NNE 06:36:09 11° NNE 06:39:37 10° NE daylight
22 Feb - 08:40:22 10° NNW 08:52:41 33° NNE 09:00:28 10° E daylight
22 Feb - 10:56:36 10° WNW 11:07:34 71° NNE 11:13:40 10° ESE daylight
22 Feb - 13:14:12 10° W 13:21:16 68° S 13:25:47 10° E daylight
22 Feb - 15:29:43 10° WSW 15:34:23 83° NNW 15:38:19 10° ENE daylight
22 Feb - 17:44:09 10° WNW 17:46:51 17° NNW 17:49:50 10° NNE daylight
23 Feb - 07:39:45 10° NNW 07:52:03 26° NNE 08:00:31 10° E daylight
23 Feb - 09:54:53 10° NW 10:07:40 58° NNE 10:14:49 10° E daylight
23 Feb - 12:12:51 10° W 12:21:51 77° S 12:27:04 10° ESE daylight
23 Feb - 14:29:40 10° WSW 14:35:18 76° S 14:39:23 10° E daylight
23 Feb - 16:44:17 10° W 16:47:51 29° NNW 16:51:25 10° NE daylight
24 Feb - 06:39:53 10° N 06:51:06 20° NNE 06:59:39 10° ENE daylight
24 Feb - 08:53:14 10° NW 09:07:25 48° NNE 09:15:43 10° E daylight
24 Feb - 11:11:03 10° WNW 11:22:13 90° N 11:28:21 10° ESE daylight
24 Feb - 13:29:00 10° W 13:36:03 69° S 13:40:32 10° E daylight
24 Feb - 15:44:28 10° W 15:48:57 49° NNW 15:52:46 10° NE daylight
25 Feb - 05:41:34 10° N 05:49:53 15° NE 05:57:00 10° ENE visible
25 Feb - 07:51:51 10° NNW 08:06:48 39° NNE 08:16:14 10° E daylight
25 Feb - 10:08:57 10° WNW 10:22:19 77° NNE 10:29:34 10° ESE daylight
25 Feb - 12:27:41 10° W 12:36:36 71° S 12:41:47 10° E daylight
25 Feb - 14:44:22 10° WSW 14:49:59 78° NNW 14:54:02 10° ENE daylight
25 Feb - 17:00:01 10° WNW 17:02:15 14° NNW 17:04:28 10° N daylight
26 Feb - 06:51:00 10° NNW 07:05:51 31° NNE 07:16:10 10° E daylight
26 Feb - 09:06:48 10° NW 09:22:03 65° NNE 09:30:36 10° ESE daylight
26 Feb - 11:25:47 10° W 11:36:55 78° S 11:43:02 10° ESE daylight
26 Feb - 13:43:45 10° WSW 13:50:49 81° S 13:55:17 10° E daylight
26 Feb - 15:59:28 10° W 16:03:22 27° NNW 16:06:43 10° NNE daylight
27 Feb - 05:50:58 10° N 06:04:39 24° NE 06:15:13 10° E visible
27 Feb - 08:04:50 10° NW 08:21:25 54° NNE 08:31:20 10° E daylight
27 Feb - 10:23:27 10° WNW 10:36:57 88° SSW 10:44:15 10° ESE daylight
27 Feb - 12:42:31 10° W 12:51:23 73° S 12:56:32 10° E daylight
27 Feb - 14:59:06 10° W 15:04:30 48° NNW 15:08:26 10° NE daylight
28 Feb - 04:52:18 10° N 05:03:15 18° NE 05:12:41 10° ENE visible
28 Feb - 07:03:20 10° NW 07:20:26 44° NNE 07:31:40 10° E daylight
28 Feb - 09:20:55 10° WNW 09:36:39 81° NNE 09:45:18 10° ESE daylight
28 Feb - 11:40:38 10° W 11:51:41 74° S 11:57:46 10° E daylight
28 Feb - 13:58:27 10° WSW 14:05:28 75° NNW 14:09:55 10° ENE daylight
28 Feb - 16:15:22 10° WNW 16:17:34 13° NW 16:19:37 10° N daylight
01 Mar - 03:57:38 10° NNE 04:01:44 11° NE 04:05:42 10° NE visible
01 Mar - 06:02:28 10° NNW 06:19:10 36° NNE 06:31:24 10° E visible
01 Mar - 08:18:31 10° WNW 08:35:59 70° NNE 08:46:08 10° ESE daylight
01 Mar - 10:38:12 10° W 10:51:40 79° S 10:58:56 10° E daylight
01 Mar - 12:57:16 10° WSW 13:06:08 85° SSE 13:11:16 10° ENE daylight
01 Mar - 15:14:08 10° W 15:18:47 27° NW 15:22:21 10° NNE daylight
02 Mar - 05:02:30 10° NNW 05:17:44 28° NE 05:30:12 10° E visible
02 Mar - 07:16:27 10° NW 07:34:57 59° NNE 07:46:40 10° ESE daylight
02 Mar - 09:35:27 10° WNW 09:51:18 87° SSW 09:59:59 10° ESE daylight
02 Mar - 11:55:28 10° W 12:06:28 77° S 12:12:31 10° E daylight
02 Mar - 14:13:11 10° WSW 14:19:54 49° NNW 14:24:17 10° NE daylight
